Location: Bothwell
(41.7170°N, 112.2589°W)
Time: 19:58:40
(UTC+00:00)

ACS3 Solar Sail - Pass Details

Date: 20 April 2026
Orbit: 894 x 947 km, 97.2° (Epoch: 12 May)

Event Time Altitude Azimuth Distance (km) Brightness Sun altitude
Rises 09:35:29 0° 2° (N) 3,546 5.5 -29.2°
Reaches altitude 10° 09:38:06 10° 353° (N) 2,608 4.6 -28.9°
Enters shadow 09:42:42 33° 302° (WNW) 1,502 2.7 -28.3°
